CST,Max TemperatureF,Mean TemperatureF,Min TemperatureF,Max Dew PointF,MeanDew PointF,Min DewpointF,Max Humidity, Mean Humidity, Min Humidity, Max Sea Level PressureIn, Mean Sea Level PressureIn, Min Sea Level PressureIn, Max VisibilityMiles, Mean VisibilityMiles, Min VisibilityMiles, Max Wind SpeedMPH, Mean Wind SpeedMPH, Max Gust SpeedMPH,PrecipitationIn, CloudCover, Events, WindDirDegrees
2013-11-1,68,57,45,50,46,41,93,68,42,29.87,29.77,29.72,10,10,10,16,8,22,0.00,0,,252
2013-11-2,58,48,37,43,40,35,92,73,54,30.22,30.04,29.88,10,10,10,18,7,23,0.00,3,,301
2013-11-3,58,45,32,42,34,30,100,70,39,30.33,30.26,30.20,10,5,0,12,3,15,0.00,1,Fog,129
2013-11-4,59,52,45,49,42,37,89,71,53,30.28,30.24,30.19,10,10,9,16,8,22,T,3,Rain,167
2013-11-5,63,57,50,51,47,45,93,75,56,30.32,30.21,30.11,10,10,6,18,8,23,0.00,5,,144
2013-11-6,61,50,38,56,48,36,93,78,62,30.28,30.09,30.02,10,7,2,21,11,28,0.23,7,Rain,247
2013-11-7,54,44,33,40,34,32,100,74,48,30.41,30.35,30.29,10,10,10,12,2,15,0.00,0,,279
2013-11-8,60,45,33,37,34,32,100,70,40,30.40,30.31,30.19,10,7,0,12,6,16,0.00,0,Fog,155
2013-11-9,64,53,41,47,41,35,96,72,48,30.24,30.20,30.13,10,8,0,20,8,24,0.00,0,,201
2013-11-10,61,48,34,41,36,27,100,64,27,30.41,30.31,30.25,10,6,0,16,5,21,0.00,0,,29
2013-11-11,62,48,33,45,38,32,96,69,42,30.38,30.25,30.16,10,10,8,30,5,36,T,6,,277
2013-11-12,42,33,23,35,22,18,88,66,44,30.73,30.63,30.40,10,10,10,28,13,35,T,3,,2
2013-11-13,43,30,17,24,20,16,92,63,33,30.74,30.60,30.42,10,10,10,9,3,13,0.00,0,,200
2013-11-14,53,41,28,28,25,20,75,55,35,30.40,30.27,30.14,10,10,10,20,7,24,0.00,0,,194
2013-11-15,51,46,40,46,39,26,86,70,53,30.14,30.07,30.01,10,10,9,15,7,17,T,7,,167
2013-11-16,67,58,49,63,56,48,96,87,78,30.01,29.88,29.72,10,9,2,28,13,36,0.11,8,Rain-Thunderstorm,173
2013-11-17,74,62,49,68,60,30,93,67,41,29.97,29.69,29.54,10,7,1,35,17,46,0.97,6,Rain-Thunderstorm,213
2013-11-18,60,48,35,41,34,27,86,59,31,30.30,30.18,30.00,10,10,10,21,7,26,0.00,0,,314
2013-11-19,51,42,33,32,28,24,96,66,36,30.35,30.29,30.22,10,10,10,12,5,15,0.00,0,,53
2013-11-20,54,44,33,38,33,26,85,68,50,30.23,30.15,30.09,10,10,9,12,5,14,0.00,0,,134
2013-11-21,55,51,47,53,49,37,100,83,66,30.21,30.17,30.13,10,5,0,17,5,21,0.34,7,Fog-Rain,129
2013-11-22,54,47,39,54,43,33,100,90,79,30.48,30.34,30.17,10,8,0,23,14,30,T,8,Fog,355
2013-11-23,43,33,23,33,23,11,82,63,43,30.70,30.57,30.47,10,10,10,25,16,32,0.00,3,,2
2013-11-24,32,25,18,15,12,10,80,62,43,30.76,30.65,30.49,10,10,10,18,8,23,0.00,0,,39
2013-11-25,35,32,29,29,22,15,82,68,53,30.47,30.32,30.21,10,10,9,10,5,14,T,8,,169
2013-11-26,43,35,26,28,25,11,82,68,53,30.21,30.12,30.02,10,10,10,28,13,37,0.00,6,,356
2013-11-27,32,26,19,17,11,8,84,60,36,30.39,30.33,30.22,10,10,10,23,11,30,0.00,0,,348
2013-11-28,42,31,19,27,22,14,92,72,51,30.49,30.40,30.33,10,10,9,18,7,22,0.00,0,,180
2013-11-29,48,35,21,32,26,21,100,75,50,30.60,30.52,30.43,10,8,2,8,3,11,0.00,0,,118
2013-11-30,53,40,27,36,31,24,85,68,50,30.41,30.30,30.19,10,10,10,18,9,23,0.00,0,,180